Showing default

COSMOS 2534 (GLONASS), 44299

Orbit data source: Space-Track

COSMOS 2534 (GLONASS), 44299 is a Commonwealth of Independent States-origin payload satellite in MEO that was launched on Mon, 27 May 2019 UTC via a SOYUZ-2-1B launch vehicle from the Plesetsk Missile And Space Complex (PKMTR). Payload-class satellites include a variety of spacecraft equipped with specific instruments for various scientific and technological missions. These include communications satellites like Starlink; space stations such as the ISS; scientific satellites like the Hubble; Earth observation satellites from companies like Planet Labs, Umbra, and HawkEye 360; GPS; miniature CubeSats for education and research; and military/defense satellites.

Loading next visibility...
Identifier
44299, 2019-030A
Orbit
MEO
Country
Flag of CISCIS
Related business
Manufacturer
Resehetnev ISS
Mission
Operational Defense Navigation
Bus & Motor
URAGAN, Unknown motor
Mass
1,450 kg wet, ~1,200 kg dry
Launch date (UTC)
2019-05-27 (6 years ago)
Launch vehicle
SOYUZ-2-1B
Launch site
Plesetsk Missile And Space Complex (PKMTR)
Object type
Payload
Rocket body
Debris
Shape & HBR
Cyl + 1 Ant + 2 Pan, 3.9 m
Radar Cross Section
8.467 m², Large (>1 m²)

Expand to show TLE details & history
Last TLE update: 16 hours ago

TLE from 16 hours ago
0 COSMOS 2534 (GLONASS)
1 44299U 19030A   25308.39825391  .00000055  00000-0  00000-0 0  9999
2 44299  64.3649 200.1845 0010093 281.8901 206.4613  2.13101887 50136
Epoch: 2025-11-04T09:33Z
TLE epoch observation values (Epoch: 2025-11-04T09:33:29.137Z)
Latitude
45.11645°
Longitude
164.20464°
Altitude
19,158.484 km
Speed
3.95 km/s
True Right ascension
23h 25m 50s
True Declination
45° 04' 06"
Sunlit
Object was in daylight at epoch
Visualization orbit readout
Latitude
Unknown
Longitude
Unknown
Altitude
Unknown
Speed
Unknown
Apparent Right ascension
Unknown
Apparent Declination
Unknown
Sunlit
N/A
Visualization observer readout
Local Sidereal Time
21:01:21
Azimuth
Unknown
Elevation
Unknown
Doppler factor
Unknown
Orbital elements
Apogee altitude
19,155.278 km
Perigee altitude
19,103.789 km
Semi-major axis
25,507.671 km
Eccentricity
0.00101
Inclination
64.3649°
RAAN
200.1845°
Arg. of periapsis
281.8901°
True anomaly
206.40982°
Mean anomaly
206.4613°
Eccentric anomaly
206.43556°
Mean motion
0.53277 °/min
Orbital period
675.72 mins
BSTAR
0
Loading maneuver chart data...
Computing Atmospheric mass density...
Loading historical data...
Loading historical data...
Loading historical data...
Loading historical data...
Loading historical data...
Loading historical data...
Loading historical data...
Other satellites on launch #30 in the year 2019 (2019-05-27 UTC)

Documentation

Showing up to 5 results
|